Regional Weather Roundup
Issued by NWS

Home | Current Version | Previous Version | Text Only | Print | Product List | Glossary Off
Versions: 1 2 3 4 5 6 7 8 9 10 11 12 13 14 15 16 17 18 19 20 21 22 23 24 25 26 27 28 29 30 31 32 33 34 35 36 37 38 39 40 41 42 43 44 45 46 47 48 49 50

000
ASUS43 KBIS 261010
RWRND

NORTH DAKOTA REGIONAL WEATHER ROUNDUP
NATIONAL WEATHER SERVICE BISMARCK ND
400 AM CST WED NOV 26 2014

NOTE: "FAIR" INDICATES FEW OR NO CLOUDS BELOW 12,000 FEET WITH NO
SIGNIFICANT WEATHER AND/OR OBSTRUCTIONS TO VISIBILITY.


NDZ001>003-009>011-017-261100-
NORTHWEST NORTH DAKOTA

CITY           SKY/WX    TMP DP  RH WIND       PRES   REMARKS
WILLISTON      LGT SNOW  16  12  84 N3        30.25R FOG
MINOT          LGT SNOW   5   0  79 NW3       30.27R
MINOT AFB      LGT SNOW   5   3  92 NW3       30.28S FOG
$$

NDZ018>021-031>035-040>046-261100-
SOUTHWEST NORTH DAKOTA

CITY           SKY/WX    TMP DP  RH WIND       PRES   REMARKS
BISMARCK       CLOUDY    11   6  81 N8        30.28R WCI  -1
DICKINSON      CLOUDY    19  15  84 CALM      30.17S
GARRISON         N/A      7   2  80 N5        30.25R WCI  -2
HETTINGER ARPT CLOUDY    21  18  88 N9        30.19R WCI  11
$$

NDZ004>008-012>016-024-026-027-054-261100-
NORTHEAST NORTH DAKOTA

CITY           SKY/WX    TMP DP  RH WIND       PRES   REMARKS
GRAND FORKS    PTCLDY     2  -4  76 N15G26    30.28R WCI -17
GRND FRKS AFB  PTCLDY     1  -4  80 N20       30.28R WCI -20
DEVILS LAKE    CLOUDY     3  -9  55 N15       30.24R WCI -15
$$

NDZ022-023-025-028>030-036>039-047>053-261100-
SOUTHEAST NORTH DAKOTA

CITY           SKY/WX    TMP DP  RH WIND       PRES   REMARKS
FARGO          LGT SNOW  12   7  80 N22       30.20R WCI  -7
JAMESTOWN      MOCLDY     5   0  79 N13       30.20R WCI -12
$$




USA.gov is the U.S. government's official web portal to all federal, state and local government web resources and services.